User: anonymous   Login
Location: Simi Valley
(34.2690°N, 118.7810°W)
Time: 16:50:09
(UTC-08:00)
Language:

Lacrosse 5 rocket - Orbit

View from above orbital plane
View from above orbital plane
View from above satellite
View from above satellite

Ground track
Ground track

The orbit data is extracted from the following two-line orbital elements,

1 28647U 05016B   18049.17504412 0.00000260  00000-0  15023-4 0    01
2 28647  56.9971  96.4994 0126144  52.4438 307.5562 15.05289700    06
Epoch (UTC): 18 February 2018 04:12:03
Eccentricity: 0.0126144
inclination: 56.9971°
perigee height: 463 km
apogee height: 638 km
right ascension of ascending node: 96.4994°
argument of perigee: 52.4438°
revolutions per day: 15.05289700
mean anomaly at epoch: 307.5562°
orbit number at epoch: 0

The dashed part of the orbit path shows where the satellite is in the earth's shadow,  

DLR